This demonstration page uses our WeatherBlox Daily Observations layout. Learn more.

Left ArrowRight Arrow

38.20091, -84.87328

Hourly Observations for April 21, 2020

Temp ( °F °C ) Dew Point ( °F °C ) Humidity (%) Winds ( mph kmh ) Pressure ( in mb ) Visibility ( mi km ) Precip ( " mm )
12:53 am 00:53 Cloudy 55 12.8 38 3.3 53 53 SW 5 7 29.72 1006 10 16 0.00 0.00
1:53 am 01:53 Mostly Cloudy 55 12.8 38 3.3 53 53 SSW 8 13 29.70 1006 10 16 0.00 0.00
2:53 am 02:53 Mostly Cloudy 55 12.8 36 2.2 49 49 SW 12 19 29.69 1005 10 16 0.00 0.00
3:53 am 03:53 Partly Cloudy 55 12.8 41 5 59 59 WSW 8 13 29.68 1005 10 16 0.00 0.00
4:53 am 04:53 Mostly Clear 54 12.2 42 5.6 64 64 WSW 8 13 29.68 1005 10 16 0.00 0.00
5:53 am 05:53 Clear 52 11.1 44 6.7 75 75 SW 9 15 29.68 1005 10 16 0.00 0.00
6:53 am 06:53 Clear 53 11.7 45 7.2 74 74 WSW 10 17 29.71 1006 10 16 0.00 0.00
7:53 am 07:53 Sunny 54 12.2 45 7.2 72 72 W 9 15 29.74 1007 10 16 0.00 0.00
8:53 am 08:53 Sunny 58 14.4 45 7.2 62 62 W 12 19 29.77 1008 10 16 0.00 0.00
9:53 am 09:53 Sunny 60 15.6 41 5 50 50 W 18 30 29.79 1009 10 16 0.00 0.00
10:53 am 10:53 Sunny 62 16.7 37 2.8 40 40 W 12 19 29.81 1010 10 16 0.00 0.00
11:53 am 11:53 Partly Cloudy 61 16.1 33 0.6 35 35 W 15 24 29.83 1010 10 16 0.00 0.00
12:53 pm 12:53 Mostly Sunny 61 16.1 36 2.2 39 39 WNW 15 24 29.86 1011 10 16 0.00 0.00
1:53 pm 13:53 Mostly Sunny 62 16.7 37 2.8 40 40 NW 14 22 29.87 1012 10 16 0.00 0.00
2:53 pm 14:53 Partly Cloudy 62 16.7 33 0.6 34 34 NW 15 24 29.88 1012 10 16 0.00 0.00
3:53 pm 15:53 Mostly Sunny 63 17.2 28 -2.2 27 27 WNW 14 22 29.89 1012 10 16 0.00 0.00
4:53 pm 16:53 Sunny 62 16.7 22 -5.6 21 21 W 13 20 29.91 1013 10 16 0.00 0.00
5:53 pm 17:53 Sunny 60 15.6 19 -7.2 20 20 NW 12 19 29.92 1013 10 16 0.00 0.00
6:53 pm 18:53 Sunny 59 15 19 -7.2 21 21 WNW 13 20 29.95 1014 10 16 0.00 0.00
7:53 pm 19:53 Sunny 56 13.3 18 -7.8 22 22 NW 7 11 29.97 1015 10 16 0.00 0.00
8:53 pm 20:53 Clear 53 11.7 19 -7.2 26 26 WNW 5 7 29.99 1016 10 16 0.00 0.00
9:53 pm 21:53 Clear 48 8.9 23 -5 37 37 W 3 6 30.01 1016 10 16 0.00 0.00
10:53 pm 22:53 Clear 42 5.6 28 -2.2 58 58 WSW 3 6 30.02 1017 10 16 0.00 0.00
11:53 pm 23:53 Clear 42 5.6 28 -2.2 58 58 Calm 30.03 1017 10 16 0.00 0.00

Powered by AerisWeather